TimeCDT,TemperatureF,Dew PointF,Humidity,Sea Level PressureIn,VisibilityMPH,Wind Direction,Wind SpeedMPH,Gust SpeedMPH,PrecipitationIn,Events,Conditions,WindDirDegrees,DateUTC
12:14 AM,48.2,45.9,92,29.92,10.0,Calm,Calm,-,N/A,,Overcast,0,2013-09-21 05:14:00
12:35 AM,48.2,46.2,93,29.92,10.0,Calm,Calm,-,N/A,,Overcast,0,2013-09-21 05:35:00
12:55 AM,48.7,46.4,92,29.92,10.0,Calm,Calm,-,N/A,,Overcast,0,2013-09-21 05:55:00
1:14 AM,48.7,46.6,92,29.92,10.0,Calm,Calm,-,N/A,,Overcast,0,2013-09-21 06:14:00
1:35 AM,48.2,45.9,92,29.92,10.0,Calm,Calm,-,N/A,,Overcast,0,2013-09-21 06:35:00
1:55 AM,48.0,45.7,92,29.93,10.0,Calm,Calm,-,N/A,,Overcast,0,2013-09-21 06:55:00
2:14 AM,47.8,45.7,92,29.93,10.0,Calm,Calm,-,N/A,,Overcast,0,2013-09-21 07:14:00
2:35 AM,47.7,45.5,92,29.93,10.0,Calm,Calm,-,N/A,,Overcast,0,2013-09-21 07:35:00
2:55 AM,47.7,45.5,92,29.93,10.0,Calm,Calm,-,N/A,,Overcast,0,2013-09-21 07:55:00
3:14 AM,47.7,45.5,92,29.93,10.0,Calm,Calm,-,N/A,,Overcast,0,2013-09-21 08:14:00
3:35 AM,47.5,45.5,93,29.93,10.0,Calm,Calm,-,N/A,,Overcast,0,2013-09-21 08:35:00
3:55 AM,47.3,45.5,93,29.93,10.0,Calm,Calm,-,N/A,,Overcast,0,2013-09-21 08:55:00
4:14 AM,47.3,45.5,93,29.94,10.0,Calm,Calm,-,N/A,,Overcast,0,2013-09-21 09:14:00
4:34 AM,47.5,45.7,93,29.94,10.0,Calm,Calm,-,N/A,,Overcast,0,2013-09-21 09:34:00
4:54 AM,47.3,45.5,93,29.94,10.0,Calm,Calm,-,N/A,,Overcast,0,2013-09-21 09:54:00
5:15 AM,47.5,45.5,93,29.94,10.0,Calm,Calm,-,N/A,,Overcast,0,2013-09-21 10:15:00
5:35 AM,47.5,45.5,93,29.94,10.0,Calm,Calm,-,N/A,,Overcast,0,2013-09-21 10:35:00
5:54 AM,47.5,45.3,92,29.95,10.0,Calm,Calm,-,N/A,,Overcast,0,2013-09-21 10:54:00
6:15 AM,47.7,45.1,91,29.95,10.0,Calm,Calm,-,N/A,,Overcast,0,2013-09-21 11:15:00
6:35 AM,47.7,44.8,90,29.96,10.0,Calm,Calm,-,N/A,,Overcast,0,2013-09-21 11:35:00
6:54 AM,47.7,44.6,89,29.96,10.0,Calm,Calm,-,N/A,,Overcast,0,2013-09-21 11:54:00
7:15 AM,47.7,44.8,90,29.96,10.0,Calm,Calm,-,N/A,,Overcast,0,2013-09-21 12:15:00
7:35 AM,48.0,44.8,89,29.98,10.0,Calm,Calm,-,N/A,,Overcast,0,2013-09-21 12:35:00
7:54 AM,48.2,45.3,90,29.98,10.0,Calm,Calm,-,N/A,,Overcast,0,2013-09-21 12:54:00
8:14 AM,49.1,44.8,85,29.98,10.0,Calm,Calm,-,N/A,,Overcast,0,2013-09-21 13:14:00
8:35 AM,49.3,41.5,75,29.98,10.0,North,6.9,-,N/A,,Overcast,360,2013-09-21 13:35:00
8:54 AM,50.0,40.6,70,29.98,10.0,North,8.1,-,N/A,,Overcast,360,2013-09-21 13:54:00
9:14 AM,50.5,41.0,70,29.98,10.0,North,6.9,-,N/A,,Overcast,10,2013-09-21 14:14:00
9:34 AM,50.2,40.5,69,29.99,10.0,North,9.2,-,N/A,,Overcast,360,2013-09-21 14:34:00
9:54 AM,50.4,40.3,68,29.99,10.0,North,5.8,-,N/A,,Overcast,360,2013-09-21 14:54:00
10:15 AM,51.3,41.0,68,29.99,10.0,North,5.8,-,N/A,,Overcast,360,2013-09-21 15:15:00
10:34 AM,52.7,41.4,65,29.99,10.0,North,8.1,-,N/A,,Overcast,360,2013-09-21 15:34:00
10:54 AM,52.0,40.3,64,29.99,10.0,North,6.9,-,N/A,,Mostly Cloudy,350,2013-09-21 15:54:00
11:15 AM,53.4,41.4,64,29.99,10.0,North,3.5,-,N/A,,Scattered Clouds,350,2013-09-21 16:15:00
11:34 AM,54.1,41.7,63,29.99,10.0,NW,3.5,-,N/A,,Mostly Cloudy,320,2013-09-21 16:34:00
11:54 AM,54.0,41.5,63,29.99,10.0,North,3.5,-,N/A,,Scattered Clouds,350,2013-09-21 16:54:00
12:15 PM,55.2,41.7,60,29.99,10.0,Calm,Calm,-,N/A,,Mostly Cloudy,0,2013-09-21 17:15:00
12:34 PM,56.3,43.0,61,29.99,10.0,Calm,Calm,-,N/A,,Mostly Cloudy,0,2013-09-21 17:34:00
12:55 PM,56.1,42.6,61,29.98,10.0,NNW,5.8,-,N/A,,Scattered Clouds,340,2013-09-21 17:55:00
1:14 PM,56.1,42.4,60,29.98,10.0,West,3.5,-,N/A,,Scattered Clouds,270,2013-09-21 18:14:00
1:34 PM,57.4,43.0,59,29.98,10.0,Calm,Calm,-,N/A,,Scattered Clouds,0,2013-09-21 18:34:00
1:55 PM,57.6,43.0,58,29.97,10.0,West,3.5,-,N/A,,Scattered Clouds,280,2013-09-21 18:55:00
2:14 PM,56.7,41.7,57,29.96,10.0,Calm,Calm,-,N/A,,Clear,0,2013-09-21 19:14:00
2:34 PM,58.6,42.3,55,29.96,10.0,Calm,Calm,-,N/A,,Clear,0,2013-09-21 19:34:00
2:55 PM,59.5,44.1,57,29.96,10.0,Calm,Calm,-,N/A,,Clear,0,2013-09-21 19:55:00
3:14 PM,59.5,43.3,55,29.95,10.0,Calm,Calm,-,N/A,,Clear,0,2013-09-21 20:14:00
3:34 PM,60.1,43.2,54,29.94,10.0,WNW,4.6,-,N/A,,Clear,300,2013-09-21 20:34:00
3:55 PM,59.7,42.8,54,29.94,10.0,Calm,Calm,-,N/A,,Clear,0,2013-09-21 20:55:00
4:14 PM,60.4,43.0,53,29.93,10.0,NW,4.6,-,N/A,,Clear,310,2013-09-21 21:14:00
4:34 PM,60.3,43.0,53,29.93,10.0,NW,4.6,-,N/A,,Clear,310,2013-09-21 21:34:00
4:55 PM,60.1,42.1,51,29.93,10.0,NW,3.5,-,N/A,,Clear,320,2013-09-21 21:55:00
5:14 PM,60.3,42.4,52,29.93,10.0,WNW,3.5,-,N/A,,Clear,300,2013-09-21 22:14:00
5:34 PM,59.7,41.7,51,29.92,10.0,Calm,Calm,-,N/A,,Clear,0,2013-09-21 22:34:00
5:55 PM,59.4,42.8,54,29.92,10.0,Calm,Calm,-,N/A,,Scattered Clouds,0,2013-09-21 22:55:00
6:14 PM,58.5,41.4,53,29.93,10.0,Calm,Calm,-,N/A,,Scattered Clouds,0,2013-09-21 23:14:00
6:34 PM,57.6,42.1,56,29.93,10.0,Calm,Calm,-,N/A,,Scattered Clouds,0,2013-09-21 23:34:00
6:55 PM,55.4,43.7,65,29.93,10.0,Calm,Calm,-,N/A,,Scattered Clouds,0,2013-09-21 23:55:00
7:14 PM,51.4,44.8,78,29.92,10.0,Calm,Calm,-,N/A,,Mostly Cloudy,0,2013-09-22 00:14:00
7:34 PM,49.1,44.1,83,29.93,10.0,Calm,Calm,-,N/A,,Mostly Cloudy,0,2013-09-22 00:34:00
7:55 PM,48.2,44.6,87,29.93,10.0,Calm,Calm,-,N/A,,Mostly Cloudy,0,2013-09-22 00:55:00
8:14 PM,46.6,43.7,90,29.93,10.0,Calm,Calm,-,N/A,,Mostly Cloudy,0,2013-09-22 01:14:00
8:34 PM,45.9,43.3,91,29.94,10.0,Calm,Calm,-,N/A,,Mostly Cloudy,0,2013-09-22 01:34:00
8:55 PM,44.2,42.3,93,29.94,10.0,Calm,Calm,-,N/A,,Mostly Cloudy,0,2013-09-22 01:55:00
9:14 PM,43.9,42.1,93,29.94,10.0,Calm,Calm,-,N/A,,Mostly Cloudy,0,2013-09-22 02:14:00
9:34 PM,43.3,41.5,93,29.94,10.0,Calm,Calm,-,N/A,,Mostly Cloudy,0,2013-09-22 02:34:00
9:55 PM,43.0,41.4,94,29.94,10.0,Calm,Calm,-,N/A,,Mostly Cloudy,0,2013-09-22 02:55:00
10:14 PM,41.4,39.9,95,29.95,10.0,Calm,Calm,-,N/A,,Scattered Clouds,0,2013-09-22 03:14:00
10:34 PM,41.5,40.1,95,29.95,10.0,Calm,Calm,-,N/A,,Scattered Clouds,0,2013-09-22 03:34:00
10:55 PM,41.2,39.7,95,29.96,10.0,Calm,Calm,-,N/A,,Scattered Clouds,0,2013-09-22 03:55:00
11:14 PM,41.7,40.3,95,29.96,10.0,Calm,Calm,-,N/A,,Scattered Clouds,0,2013-09-22 04:14:00
11:34 PM,40.3,39.2,96,29.96,10.0,Calm,Calm,-,N/A,,Scattered Clouds,0,2013-09-22 04:34:00
11:55 PM,41.0,39.9,96,29.96,7.0,Calm,Calm,-,N/A,,Scattered Clouds,0,2013-09-22 04:55:00